This demonstration page uses our WeatherBlox Daily Observations layout. Learn more.

38.88101, -77.10428

Hourly Observations for March 17, 2016

Temp ( °F °C ) Dew Point ( °F °C ) Humidity (%) Winds ( mph kmh ) Pressure ( in mb ) Visibility ( mi km ) Precip ( " mm )
12:52 am 00:52 Clear 55 12.8 53 11.7 93 93 Calm 29.83 1010 10 16.09344 0 0
1:52 am 01:52 Clear 55 12.8 52 11.1 90 90 NW 3 6 29.88 1012 10 16.09344 0 0
2:52 am 02:52 Clear 54 12.2 49 9.4 83 83 Calm 29.88 1012 10 16.09344 0 0
3:52 am 03:52 Clear 52 11.1 50 10 93 93 Calm 29.88 1012 10 16.09344 0 0
4:52 am 04:52 Clear 50 10 47 8.3 89 89 N 3 6 29.91 1013 10 16.09344 0 0
5:52 am 05:52 Mostly Clear 49 9.4 44 6.7 83 83 S 6 9 29.91 1013 10 16.09344 0 0
6:28 am 06:28 Mostly Clear 50 10 45 7 82 82 Calm 29.91 1013 10 16.09344 0 0
6:52 am 06:52 Mostly Clear 50 10 43 6.1 77 77 SW 5 7 29.91 1013 10 16.09344 0 0
7:52 am 07:52 Mostly Sunny 50 10 39 3.9 66 66 SSW 6 9 29.94 1014 10 16.09344 0 0
8:52 am 08:52 Mostly Sunny 53 11.7 46 7.8 77 77 N 5 7 29.94 1014 10 16.09344 0 0
9:52 am 09:52 Mostly Sunny 57 13.9 46 7.8 67 67 S 6 9 29.94 1014 10 16.09344 0 0
10:52 am 10:52 Partly Cloudy 62 16.7 43 6.1 50 50 S 7 11 29.91 1013 10 16.09344 0 0
11:29 am 11:29 Sunny 66 18.9 35 1.7 32 32 WSW 12 19 29.88 1012 10 16.09344 0 0
11:52 am 11:52 Partly Cloudy 67 19.4 34 1.1 30 30 WSW 12 19 29.88 1012 10 16.09344 0 0
12:52 pm 12:52 Mostly Cloudy 66 18.9 32 0 28 28 WSW 13 20 29.85 1011 10 16.09344 0 0
1:52 pm 13:52 Mostly Cloudy 66 18.9 34 1.1 30 30 NW 14 22 29.83 1010 10 16.09344 0 0
2:20 pm 14:20 Mostly Cloudy with Light Rain 66 19 37 3 35 35 NNW 15 24 29.83 1010 10 16.09344 0 0
2:52 pm 14:52 Mostly Cloudy 67 19.4 35 1.7 31 31 WNW 12 19 29.8 1009 10 16.09344 0.001 0.001
3:52 pm 15:52 Mostly Cloudy 68 20 34 1.1 28 28 WNW 12 19 29.8 1009 10 16.09344 0 0
4:52 pm 16:52 Mostly Cloudy 63 17.2 35 1.7 35 35 N 14 22 29.8 1009 10 16.09344 0 0
5:52 pm 17:52 Mostly Cloudy 65 18.3 34 1.1 32 32 N 14 22 29.83 1010 10 16.09344 0 0
6:52 pm 18:52 Mostly Cloudy 62 16.7 33 0.6 34 34 N 10 17 29.83 1010 10 16.09344 0 0
7:52 pm 19:52 Partly Cloudy 60 15.6 32 0 35 35 N 12 19 29.85 1011 10 16.09344 0 0
8:52 pm 20:52 Partly Cloudy 60 15.6 30 -1.1 32 32 NNW 8 13 29.88 1012 10 16.09344 0 0
9:52 pm 21:52 Mostly Clear 59 15 27 -2.8 29 29 NNW 12 19 29.88 1012 10 16.09344 0 0
10:52 pm 22:52 Mostly Cloudy 57 13.9 27 -2.8 32 32 N 6 9 29.91 1013 10 16.09344 0 0
11:52 pm 23:52 Partly Cloudy 56 13.3 28 -2.2 34 34 S 5 7 29.91 1013 10 16.09344 0 0

Powered by AerisWeather